• Em Portugal
  • Lista de países
  • Para 7 dias
  • Temperatura da água
  • Mapas de satélite
  • Mapa do tempo
  • Widgets de tempo
  • user-avatar
    Iniciar Sessão

    Previsão horária em Sur

    Hoje, 16 Dezembro, Sábado

    Tempo Temperatura Precipitação Vento Pressão Humidade
    00:00 +16°C° 0 mm 1 m/s 766 mmHg 86%
    01:00 +15°C° 0 mm 1 m/s 766 mmHg 86%
    02:00 +14°C° 0 mm 0 m/s 766 mmHg 88%
    03:00 +15°C° 0 mm 1 m/s 766 mmHg 88%
    04:00 +15°C° 0 mm 1 m/s 766 mmHg 88%
    05:00 +15°C° 0 mm 1 m/s 766 mmHg 88%
    06:00 +15°C° 0 mm 1 m/s 767 mmHg 84%
    07:00 +16°C° 0 mm 1 m/s 767 mmHg 81%
    08:00 +18°C° 0 mm 2 m/s 767 mmHg 71%
    09:00 +20°C° 0 mm 1 m/s 767 mmHg 65%
    10:00 +21°C° 0 mm 1 m/s 767 mmHg 59%
    11:00 +22°C° 0 mm 1 m/s 767 mmHg 53%
    12:00 +22°C° 0 mm 1 m/s 766 mmHg 52%
    13:00 +23°C° 0 mm 1 m/s 766 mmHg 50%
    14:00 +23°C° 0 mm 2 m/s 766 mmHg 48%
    15:00 +21°C° 0 mm 2 m/s 766 mmHg 55%
    16:00 +20°C° 0 mm 2 m/s 766 mmHg 63%
    17:00 +18°C° 0 mm 2 m/s 766 mmHg 70%
    18:00 +18°C° 0 mm 2 m/s 766 mmHg 72%
    19:00 +18°C° 0 mm 2 m/s 766 mmHg 73%
    20:00 +17°C° 0 mm 2 m/s 766 mmHg 75%
    21:00 +17°C° 0 mm 2 m/s 766 mmHg 72%
    22:00 +17°C° 0 mm 2 m/s 766 mmHg 68%
    23:00 +17°C° 0 mm 2 m/s 766 mmHg 65%

    Amanhã, 17 Dezembro, Domingo

    Tempo Temperatura Precipitação Vento Pressão Humidade
    00:00 +17°C° 0 mm 2 m/s 766 mmHg 62%
    01:00 +17°C° 0 mm 2 m/s 766 mmHg 59%
    02:00 +17°C° 0 mm 2 m/s 766 mmHg 55%
    03:00 +17°C° 0 mm 2 m/s 766 mmHg 53%
    04:00 +16°C° 0 mm 2 m/s 766 mmHg 51%
    05:00 +16°C° 0 mm 2 m/s 766 mmHg 49%
    06:00 +17°C° 0 mm 2 m/s 766 mmHg 48%
    07:00 +18°C° 0 mm 2 m/s 766 mmHg 46%
    08:00 +18°C° 0 mm 3 m/s 766 mmHg 45%
    09:00 +20°C° 0 mm 2 m/s 766 mmHg 40%
    10:00 +23°C° 0 mm 2 m/s 766 mmHg 35%
    11:00 +24°C° 0 mm 2 m/s 765 mmHg 31%
    12:00 +24°C° 0 mm 2 m/s 765 mmHg 31%
    13:00 +24°C° 0 mm 1 m/s 765 mmHg 32%
    14:00 +24°C° 0 mm 1 m/s 764 mmHg 32%
    15:00 +24°C° 0 mm 1 m/s 764 mmHg 36%
    16:00 +23°C° 0 mm 2 m/s 764 mmHg 40%
    17:00 +21°C° 0 mm 2 m/s 764 mmHg 44%
    18:00 +21°C° 0 mm 2 m/s 765 mmHg 43%
    19:00 +20°C° 0 mm 2 m/s 765 mmHg 41%
    20:00 +20°C° 0 mm 3 m/s 765 mmHg 39%
    21:00 +20°C° 0 mm 2 m/s 765 mmHg 39%
    22:00 +19°C° 0 mm 2 m/s 765 mmHg 38%
    23:00 +19°C° 0 mm 2 m/s 765 mmHg 38%

    Depois de amanhã, 18 Dezembro, Segunda-feira

    Tempo Temperatura Precipitação Vento Pressão Humidade
    00:00 +19°C° 0 mm 2 m/s 765 mmHg 36%
    01:00 +19°C° 0 mm 2 m/s 765 mmHg 35%
    02:00 +20°C° 0 mm 2 m/s 765 mmHg 33%
    03:00 +20°C° 0 mm 2 m/s 765 mmHg 33%
    04:00 +19°C° 0 mm 2 m/s 764 mmHg 32%
    05:00 +20°C° 0 mm 1 m/s 764 mmHg 32%
    06:00 +21°C° 0 mm 1 m/s 764 mmHg 33%
    07:00 +20°C° 0 mm 2 m/s 765 mmHg 33%
    08:00 +21°C° 0 mm 2 m/s 765 mmHg 33%
    09:00 +23°C° 0 mm 2 m/s 765 mmHg 29%
    10:00 +25°C° 0 mm 2 m/s 765 mmHg 25%
    11:00 +26°C° 0 mm 2 m/s 765 mmHg 22%
    12:00 +26°C° 0 mm 2 m/s 765 mmHg 22%
    13:00 +26°C° 0 mm 2 m/s 764 mmHg 23%
    14:00 +26°C° 0 mm 2 m/s 764 mmHg 24%
    15:00 +25°C° 0 mm 1 m/s 764 mmHg 28%
    16:00 +23°C° 0 mm 1 m/s 764 mmHg 31%
    17:00 +22°C° 0 mm 1 m/s 764 mmHg 35%
    18:00 +22°C° 0 mm 1 m/s 764 mmHg 34%
    19:00 +22°C° 0 mm 1 m/s 764 mmHg 32%
    20:00 +20°C° 0 mm 2 m/s 765 mmHg 31%
    21:00 +20°C° 0 mm 2 m/s 765 mmHg 30%
    22:00 +20°C° 0 mm 2 m/s 765 mmHg 29%
    23:00 +20°C° 0 mm 2 m/s 765 mmHg 29%

    19 Dezembro, Terça-feira

    Tempo Temperatura Precipitação Vento Pressão Humidade
    00:00 +20°C° 0 mm 2 m/s 765 mmHg 28%
    01:00 +20°C° 0 mm 2 m/s 765 mmHg 27%
    02:00 +20°C° 0 mm 2 m/s 765 mmHg 27%
    03:00 +20°C° 0 mm 2 m/s 765 mmHg 30%
    04:00 +20°C° 0 mm 2 m/s 765 mmHg 34%
    05:00 +21°C° 0 mm 1 m/s 765 mmHg 37%
    06:00 +21°C° 0 mm 1 m/s 765 mmHg 40%
    07:00 +22°C° 0 mm 1 m/s 765 mmHg 42%
    08:00 +22°C° 0 mm 1 m/s 765 mmHg 45%
    09:00 +23°C° 0 mm 2 m/s 765 mmHg 43%
    10:00 +25°C° 0 mm 2 m/s 765 mmHg 41%
    11:00 +26°C° 0 mm 2 m/s 765 mmHg 39%
    12:00 +26°C° 0 mm 3 m/s 765 mmHg 40%
    13:00 +26°C° 0 mm 4 m/s 764 mmHg 40%
    14:00 +26°C° 0 mm 5 m/s 764 mmHg 41%
    15:00 +25°C° 0 mm 5 m/s 764 mmHg 44%
    16:00 +23°C° 0 mm 5 m/s 764 mmHg 48%
    17:00 +22°C° 0 mm 5 m/s 764 mmHg 52%
    18:00 +22°C° 0 mm 5 m/s 764 mmHg 52%
    19:00 +22°C° 0 mm 5 m/s 764 mmHg 53%
    20:00 +22°C° 0 mm 5 m/s 764 mmHg 53%
    21:00 +21°C° 0 mm 5 m/s 764 mmHg 52%
    22:00 +21°C° 0 mm 4 m/s 764 mmHg 51%
    23:00 +21°C° 0 mm 4 m/s 764 mmHg 50%

    20 Dezembro, Quarta-feira

    Tempo Temperatura Precipitação Vento Pressão Humidade
    00:00 +21°C° 0 mm 4 m/s 764 mmHg 49%
    01:00 +21°C° 0 mm 4 m/s 763 mmHg 47%
    02:00 +21°C° 0 mm 3 m/s 763 mmHg 46%
    03:00 +20°C° 0 mm 3 m/s 763 mmHg 44%
    04:00 +20°C° 0 mm 3 m/s 763 mmHg 42%
    05:00 +20°C° 0 mm 3 m/s 763 mmHg 41%
    06:00 +20°C° 0 mm 4 m/s 763 mmHg 43%
    07:00 +21°C° 0 mm 4 m/s 763 mmHg 45%
    08:00 +21°C° 0 mm 4 m/s 764 mmHg 46%
    09:00 +22°C° 0 mm 4 m/s 764 mmHg 41%
    10:00 +25°C° 0 mm 4 m/s 764 mmHg 36%
    11:00 +26°C° 0 mm 4 m/s 763 mmHg 31%
    12:00 +26°C° 0 mm 4 m/s 763 mmHg 31%
    13:00 +26°C° 0 mm 4 m/s 763 mmHg 31%
    14:00 +26°C° 0 mm 3 m/s 762 mmHg 31%
    15:00 +24°C° 0 mm 3 m/s 763 mmHg 40%
    16:00 +22°C° 0 mm 4 m/s 763 mmHg 48%
    17:00 +20°C° 0 mm 4 m/s 763 mmHg 56%
    18:00 +20°C° 0 mm 4 m/s 763 mmHg 60%
    19:00 +19°C° 0 mm 3 m/s 764 mmHg 63%
    20:00 +19°C° 0 mm 3 m/s 764 mmHg 67%
    21:00 +18°C° 0 mm 3 m/s 764 mmHg 70%
    22:00 +18°C° 0 mm 3 m/s 764 mmHg 73%
    23:00 +17°C° 0 mm 3 m/s 764 mmHg 77%

    21 Dezembro, Quinta-feira

    Tempo Temperatura Precipitação Vento Pressão Humidade
    00:00 +17°C° 0 mm 3 m/s 764 mmHg 80%
    01:00 +17°C° 0 mm 3 m/s 764 mmHg 84%
    02:00 +17°C° 0 mm 3 m/s 764 mmHg 88%
    03:00 +16°C° 0 mm 3 m/s 763 mmHg 89%
    04:00 +16°C° 0 mm 3 m/s 763 mmHg 90%
    05:00 +16°C° 0 mm 3 m/s 763 mmHg 91%
    06:00 +15°C° 0 mm 4 m/s 763 mmHg 88%
    07:00 +17°C° 0 mm 4 m/s 763 mmHg 84%
    08:00 +17°C° 0 mm 4 m/s 764 mmHg 81%
    09:00 +16°C° 0,1 mm 5 m/s 763 mmHg 79%
    10:00 +17°C° 0,1 mm 6 m/s 763 mmHg 77%
    11:00 +17°C° 0,1 mm 6 m/s 763 mmHg 75%
    12:00 +16°C° 0,3 mm 7 m/s 762 mmHg 75%
    13:00 +16°C° 0,3 mm 7 m/s 762 mmHg 76%
    14:00 +15°C° 0,3 mm 7 m/s 762 mmHg 77%
    15:00 +15°C° 0,3 mm 6 m/s 761 mmHg 78%
    16:00 +14°C° 0,3 mm 5 m/s 761 mmHg 78%
    17:00 +14°C° 0,3 mm 4 m/s 761 mmHg 79%
    18:00 +13°C° 3 mm 6 m/s 760 mmHg 84%
    19:00 +12°C° 3 mm 7 m/s 760 mmHg 88%
    20:00 +12°C° 3 mm 8 m/s 760 mmHg 93%
    21:00 +12°C° 1,6 mm 9 m/s 759 mmHg 89%
    22:00 +12°C° 1,6 mm 11 m/s 759 mmHg 85%
    23:00 +12°C° 1,6 mm 12 m/s 759 mmHg 81%
    Mostrar mais